TimeCDT,TemperatureF,Dew PointF,Humidity,Sea Level PressureIn,VisibilityMPH,Wind Direction,Wind SpeedMPH,Gust SpeedMPH,PrecipitationIn,Events,Conditions,WindDirDegrees,DateUTC
12:56 AM,46.9,44.1,90,29.85,-9999.0,NNW,12.7,-,N/A,,Unknown,340,2012-10-24 05:56:00
1:56 AM,48.0,44.1,86,29.86,-9999.0,NNW,11.5,-,N/A,,Unknown,340,2012-10-24 06:56:00
2:56 AM,46.9,43.0,86,29.85,-9999.0,North,15.0,-,N/A,,Unknown,350,2012-10-24 07:56:00
3:56 AM,46.0,43.0,89,29.84,-9999.0,North,11.5,-,N/A,,Unknown,350,2012-10-24 08:56:00
4:56 AM,43.0,41.0,93,29.89,-9999.0,North,8.1,-,N/A,,Unknown,360,2012-10-24 09:56:00
5:56 AM,39.9,39.0,97,29.91,-9999.0,North,4.6,-,N/A,,Unknown,350,2012-10-24 10:56:00
6:56 AM,39.0,37.9,96,29.94,-9999.0,North,4.6,-,N/A,,Unknown,350,2012-10-24 11:56:00
7:56 AM,39.9,37.9,93,29.94,-9999.0,North,5.8,-,N/A,,Unknown,350,2012-10-24 12:56:00
8:56 AM,43.0,37.9,82,29.94,-9999.0,North,9.2,-,N/A,,Unknown,350,2012-10-24 13:56:00
9:56 AM,43.0,37.9,82,29.93,-9999.0,North,16.1,-,N/A,,Unknown,360,2012-10-24 14:56:00
10:56 AM,44.1,37.0,76,29.93,-9999.0,North,21.9,26.5,N/A,,Unknown,360,2012-10-24 15:56:00
11:56 AM,44.1,37.0,76,29.94,-9999.0,North,24.2,27.6,N/A,,Unknown,350,2012-10-24 16:56:00
12:56 PM,43.0,36.0,76,29.96,-9999.0,North,19.6,26.5,N/A,,Unknown,360,2012-10-24 17:56:00
1:56 PM,43.0,35.1,74,29.97,-9999.0,North,12.7,-,N/A,,Unknown,360,2012-10-24 18:56:00
2:56 PM,41.0,35.1,79,29.95,-9999.0,North,18.4,-,N/A,,Unknown,350,2012-10-24 19:56:00
3:56 PM,41.0,35.1,79,29.94,-9999.0,North,16.1,-,N/A,,Unknown,360,2012-10-24 20:56:00
4:56 PM,39.9,35.1,83,29.94,-9999.0,North,18.4,23.0,N/A,,Unknown,10,2012-10-24 21:56:00
5:56 PM,39.9,34.0,79,29.96,-9999.0,North,16.1,-,N/A,,Unknown,10,2012-10-24 22:56:00
6:56 PM,39.0,34.0,82,29.96,-9999.0,North,16.1,-,N/A,,Unknown,360,2012-10-24 23:56:00
7:56 PM,37.9,33.1,83,29.99,-9999.0,North,18.4,27.6,N/A,,Unknown,350,2012-10-25 00:56:00
8:56 PM,36.0,34.0,93,30.01,-9999.0,North,17.3,-,N/A,,Unknown,360,2012-10-25 01:56:00
9:56 PM,33.1,32.0,96,30.02,-9999.0,North,13.8,-,0.04,,Unknown,350,2012-10-25 02:56:00
10:56 PM,34.0,33.1,96,30.01,-9999.0,North,13.8,-,0.02,,Unknown,350,2012-10-25 03:56:00
11:56 PM,34.0,32.0,92,30.02,-9999.0,North,16.1,-,N/A,,Unknown,350,2012-10-25 04:56:00